CAPE
1884 1170 521 308 62 26 31 93 10 19 0 0 108 369 1838 1816 1469 1338 1561 1646 1570 1349 1372 1247 1098 1172 1194 920 618 407 333 306 398 586 848 448 150 294 287 535 369 333 345
1169 1221 244 85 179 208 229 208 172 164 36 15 44 1065 1674 1557 1455 1322 1353 1354 1063 1139 1145 1168 1156 1150 1032 1191 899 504 314 300 343 279 821 291 222 251 363 290 500 370 484
2 271 361 278 11 31 44 129 380 443 275 786 1383 1554 1580 1607 1555 1273 1177 1212 809 1037 1194 1251 1059 863 848 878 618 496 459 429 424 547 629 115 69 32 108 121 254 411 160
0 1 3 0 0 0 10 460 1055 748 281 191 311 647 811 817 1102 1290 1058 765 639 684 827 866 776 626 527 459 427 373 283 340 411 362 331 1 3 2 86 70 14 100 54
28 2 0 0 0 0 0 0 355 53 2 7 41 13 38 183 558 754 851 908 674 425 296 456 537 458 467 446 302 202 248 212 216 198 261 42 1 1 23 75 147 7 31
167 174 91 2 0 0 0 45 419 622 417 125 0 0 0 0 0 0 155 487 422 183 234 205 350 394 547 394 210 159 151 309 311 364 245 134 30 1 24 10 2 2 0
17 23 58 26 4 60 141 196 359 483 362 262 111 84 76 53 0 0 0 288 437 150 162 150 239 256 255 361 204 138 93 67 159 308 200 173 105 14 114 11 1 1 1
0 6 89 138 149 257 311 386 388 246 301 406 518 601 681 800 687 499 289 311 192 140 132 159 171 316 240 218 105 126 136 122 111 119 154 95 34 27 92 17 0 0 1
0 0 0 5 167 233 284 430 452 330 336 418 489 478 447 429 299 171 66 218 18 41 43 117 219 188 48 13 71 35 2 44 3 0 0 0 0 0 0 1 1 0 2
0 0 0 16 57 124 165 249 297 271 336 483 546 580 472 362 223 5 0 2 3 30 188 70 39 152 37 14 131 68 5 24 149 23 1 0 1 1 0 0 2 3 2
0 0 0 0 1 12 46 150 177 245 289 324 362 416 387 261 235 4 0 3 45 205 15 132 94 6 2 1 50 161 176 53 55 41 2 5 8 5 6 1 5 0 6
0 0 0 0 0 6 26 49 98 156 129 61 95 126 144 187 94 0 1 1 1 49 77 179 183 17 1 1 0 5 15 1 14 30 3 5 6 7 8 3 3 8 0
1 2 3 1 2 3 2 3 4 28 9 24 50 56 36 43 58 1 1 1 0 6 98 93 66 1 1 1 0 0 1 57 3 2 8 22 10 40 17 14 0 10 1
0 0 7 10 3 2 3 0 11 38 3 6 26 67 51 57 95 86 1 1 4 4 3 8 1 0 0 0 0 0 20 34 0 0 0 15 25 21 38 60 37 59 83
5 5 10 8 2 5 3 2 5 16 6 3 4 16 39 55 45 1 0 3 2 2 15 1 2 3 3 2 2 0 17 58 6 0 0 7 17 22 27 76 59 32 104
5 10 12 5 3 4 15 9 1 0 0 0 1 1 1 1 0 0 1 0 0 1 43 50 6 4 2 4 8 27 21 20 24 6 0 0 4 1 3 29 15 116 145
5 6 11 4 8 8 5 10 20 1 7 6 1 1 1 1 1 1 0 1 1 1 49 66 40 40 30 25 14 19 17 35 5 1 0 0 4 1 0 3 43 86 44
1 0 5 7 9 6 6 12 10 8 7 5 6 0 0 1 1 1 0 1 4 1 141 114 132 107 64 27 4 8 21 9 3 1 3 15 0 6 28 30 44 102 114
3 4 5 6 7 5 8 10 8 8 8 7 6 0 0 1 1 0 0 4 2 8 89 183 174 229 131 45 49 3 2 1 1 2 13 1 2 2 9 29 60 39 70
0 1 4 6 7 6 7 7 5 7 7 8 8 6 2 3 5 8 1 3 7 10 8 25 98 116 90 37 59 18 1 2 7 6 16 1 11 3 15 27 45 63 68
0 0 3 0 8 8 8 7 8 8 6 6 7 5 0 5 4 6 7 3 6 9 7 10 18 145 164 60 30 13 2 4 2 2 2 0 6 2 11 24 71 56 94
0 0 0 3 7 7 8 9 8 7 8 7 6 5 0 5 7 5 5 6 8 5 4 2 6 18 56 79 46 30 10 7 1 10 26 26 13 7 6 12 39 27 58
0 0 0 0 0 0 1 4 7 5 6 7 7 6 7 7 7 7 7 7 6 5 5 4 2 2 5 5 14 33 30 9 9 69 61 93 96 75 27 23 21 5 11
0 0 0 0 0 0 0 0 0 0 6 5 5 8 3 3 3 5 6 7 6 6 4 3 5 4 1 1 3 3 2 1 1 7 81 96 173 30 170 80 22 30 15
0 0 0 0 0 0 0 0 0 0 0 0 0 4 8 3 0 0 0 1 3 2 3 4 4 3 3 2 1 1 0 0 1 1 3 20 113 148 112 39 3 7 18
0 0 0 0 0 0 0 0 0 0 0 0 0 0 0 1 2 0 0 0 0 0 0 1 0 0 1 1 1 0 0 1 0 2 2 7 19 69 54 55 52 67 64
CIN
-356 -456 -677 -756 -970 -1007 -903 -754 -977 -254 -0 -0 -533 -288 -73 -130 -193 -140 -153 -81 -103 -87 -82 -45 -61 -34 -9 -12 -24 -34 -28 -28 -1 -37 -19 -114 -149 -147 -158 -87 -123 -129 -116
-371 -310 -654 -788 -638 -577 -542 -560 -615 -629 -789 -707 -630 -78 -66 -134 -157 -117 -129 -157 -142 -101 -101 -59 -60 -25 -18 -3 -5 -15 -31 -35 -12 -45 -6 -98 -110 -115 -97 -86 -63 -68 -42
-42 -569 -431 -470 -771 -734 -705 -598 -405 -330 -437 -189 -79 -84 -130 -125 -124 -118 -170 -138 -147 -99 -79 -71 -71 -23 -15 -6 -12 -21 -20 -14 -5 -1 -4 -69 -93 -104 -100 -86 -52 -26 -76
-0 -128 -561 -0 -0 -0 -362 -287 -167 -244 -372 -416 -354 -264 -222 -258 -166 -192 -167 -163 -154 -131 -108 -104 -73 -57 -63 -56 -41 -29 -44 -28 -4 -8 -19 -3 -42 -0 -80 -73 -71 -64 -101
-772 -215 -0 -0 -0 -0 -0 -0 -267 -425 -100 -121 -421 -290 -94 -318 -300 -272 -166 -104 -125 -144 -164 -155 -111 -98 -87 -71 -75 -85 -43 -39 -33 -29 -8 -65 -0 -0 -111 -62 -16 -25 -71
-385 -344 -430 -81 -0 -0 -1 -311 -138 -112 -175 -262 -4 -0 -0 -0 -0 -0 -303 -156 -140 -159 -196 -182 -125 -99 -62 -75 -101 -85 -63 -1 -0 -0 -11 -36 -74 -0 -28 -12 -2 -0 -0
-518 -491 -385 -324 -125 -265 -173 -142 -115 -93 -119 -176 -265 -314 -343 -360 -0 -0 -0 -177 -93 -155 -180 -159 -124 -121 -108 -54 -77 -69 -70 -85 -12 -2 -32 -17 -14 -5 -7 -4 -0 -0 -0
-0 -263 -261 -222 -211 -154 -138 -116 -121 -146 -133 -117 -113 -114 -95 -85 -123 -164 -208 -108 -98 -147 -165 -154 -133 -95 -83 -60 -79 -41 -29 -41 -54 -66 -36 -22 -27 -16 -1 -4 -0 -0 -0
-0 -0 -0 -31 -110 -99 -107 -101 -118 -132 -137 -135 -124 -115 -93 -100 -179 -230 -260 -108 -248 -264 -253 -185 -118 -112 -148 -154 -64 -90 -0 -95 -42 -0 -0 -0 -0 -0 -0 -0 -0 -0 -0
-0 -0 -0 -254 -162 -167 -156 -105 -118 -121 -109 -80 -81 -84 -103 -119 -200 -390 -0 -0 -0 -269 -140 -157 -192 -135 -171 -240 -48 -64 -15 -67 -35 -100 -0 -0 -0 -0 -0 -0 -0 -0 -0
-0 -0 -0 -0 -138 -95 -113 -134 -102 -83 -80 -91 -82 -85 -80 -119 -170 -114 -0 -24 -199 -63 -94 -126 -178 -72 -171 -0 -117 -44 -49 -79 -90 -82 -72 -0 -168 -0 -0 -0 -0 -1 -0
-0 -0 -0 -0 -0 -29 -95 -115 -98 -79 -104 -138 -108 -114 -107 -88 -118 -0 -0 -0 -0 -108 -118 -108 -117 -221 -0 -0 -0 -53 -141 -48 -151 -107 -109 -0 -43 -0 -0 -0 -0 -5 -0
-0 -0 -0 -0 -0 -0 -0 -13 -38 -108 -37 -97 -82 -73 -107 -104 -84 -56 -0 -0 -0 -8 -92 -114 -119 -5 -0 -0 -0 -0 -0 -64 -143 -13 -77 -97 -124 -78 -98 -81 -0 -61 -98
-0 -0 -0 -0 -0 -0 -1 -0 -84 -57 -15 -1 -60 -36 -49 -65 -33 -39 -15 -0 -0 -0 -0 -120 -0 -0 -0 -0 -0 -0 -54 -50 -0 -0 -0 -85 -71 -80 -55 -33 -65 -45 -13
-0 -0 -0 -0 -1 -0 -3 -0 -0 -20 -1 -0 -0 -5 -12 -23 -24 -0 -0 -54 -0 -0 -127 -0 -0 -0 -0 -0 -0 -0 -45 -23 -52 -0 -0 -63 -51 -54 -50 -23 -17 -38 -11
-0 -0 -0 -0 -0 -0 -0 -0 -4 -0 -0 -0 -0 -0 -0 -0 -0 -0 -0 -0 -0 -0 -101 -102 -0 -0 -31 -71 -63 -65 -89 -72 -59 -87 -0 -0 -10 -0 -24 -36 -51 -9 -14
-0 -0 -0 -0 -0 -0 -0 -0 -0 -0 -0 -2 -0 -0 -0 -0 -0 -0 -0 -0 -0 -0 -74 -78 -81 -52 -31 -37 -30 -75 -92 -60 -98 -10 -0 -0 -60 -4 -0 -115 -28 -16 -40
-0 -0 -0 -0 -0 -0 -0 -0 -0 -0 -0 -0 -0 -1 -0 -0 -0 -0 -0 -0 -0 -0 -18 -27 -17 -12 -14 -50 -0 -36 -43 -78 -81 -8 -58 -28 -0 -55 -43 -66 -65 -38 -29
-0 -0 -0 -0 -0 -0 -0 -0 -0 -0 -0 -0 -0 -0 -0 -0 -0 -0 -0 -0 -0 -0 -1 -0 -0 -0 -2 -10 -13 -0 -42 -0 -0 -0 -39 -30 -38 -68 -66 -60 -53 -72 -52
-0 -0 -0 -0 -0 -0 -0 -0 -0 -0 -0 -0 -0 -0 -0 -0 -0 -0 -0 -0 -0 -0 -0 -3 -2 -1 -3 -17 -11 -20 -0 -0 -0 -4 -38 -42 -68 -83 -69 -70 -58 -57 -58
-0 -0 -0 -0 -0 -0 -0 -0 -0 -0 -0 -0 -0 -0 -0 -0 -0 -0 -0 -0 -0 -0 -0 -11 -5 -1 -0 -14 -31 -29 -1 -1 -0 -0 -0 -0 -65 -74 -83 -89 -79 -79 -68
-0 -0 -0 -0 -0 -0 -0 -0 -0 -0 -0 -0 -0 -0 -0 -0 -0 -0 -0 -0 -0 -0 -0 -0 -10 -6 -8 -5 -0 -0 -21 -25 -0 -37 -47 -49 -41 -49 -54 -102 -77 -87 -102
-0 -0 -0 -0 -0 -0 -0 -0 -0 -0 -0 -0 -0 -0 -0 -0 -0 -0 -0 -0 -0 -0 -0 -0 -0 -0 -0 -0 -3 -8 -1 -9 -34 -14 -19 -19 -20 -31 -61 -73 -87 -109 -108
-0 -0 -0 -0 -0 -0 -0 -0 -0 -0 -0 -0 -0 -0 -0 -0 -0 -0 -0 -0 -0 -0 -0 -0 -0 -0 -0 -0 -0 -0 -0 -0 -0 -2 -8 -9 -20 -68 -31 -50 -114 -121 -166
-0 -0 -0 -0 -0 -0 -0 -0 -0 -0 -0 -0 -0 -0 -0 -0 -0 -0 -0 -0 -0 -0 -0 -0 -0 -0 -0 -0 -0 -0 -0 -0 -0 -0 -0 -36 -18 -18 -38 -76 -194 -196 -161
-0 -0 -0 -0 -0 -0 -0 -0 -0 -0 -0 -0 -0 -0 -0 -0 -0 -0 -0 -0 -0 -0 -0 -0 -0 -0 -0 -0 -0 -0 -0 -0 -0 -0 -0 -0 -33 -36 -53 -50 -62 -75 -111
Wind_Speed
6 1 6 7 6 4 5 9 13 7 1 7 12 15 14 12 6 6 7 8 8 9 8 12 12 12 9 8 8 9 10 10 11 11 6 7 9 10 8 10 10 10 9
5 5 4 4 1 5 6 10 9 12 10 14 13 9 9 8 6 10 12 10 10 10 11 10 12 8 12 11 9 11 10 11 10 15 8 7 10 10 10 11 9 8 9
7 5 3 4 6 7 9 10 8 8 8 7 7 6 8 9 9 10 10 8 9 10 11 9 10 10 11 10 11 10 9 8 9 10 8 4 7 5 7 8 9 8 6
4 5 5 6 7 8 6 7 6 4 4 6 7 10 12 11 10 8 7 8 10 10 11 10 11 11 13 12 12 12 10 9 8 8 7 3 3 4 6 6 6 6 6
3 5 7 7 7 6 7 6 7 6 6 9 11 11 8 6 6 6 8 10 11 12 13 11 11 14 20 17 9 10 8 7 6 6 7 4 4 3 7 4 7 5 4
6 7 7 6 5 7 8 8 6 8 9 8 11 10 12 9 12 15 16 13 12 14 12 12 12 15 16 20 18 14 10 8 10 6 5 8 7 5 4 6 5 3 3
6 7 7 6 6 6 6 6 8 8 6 8 9 9 11 11 16 20 25 13 12 14 13 11 10 9 13 11 13 12 13 14 14 7 8 7 4 6 6 7 8 8 5
8 8 9 8 7 7 7 8 8 6 9 10 10 10 10 10 15 16 20 12 12 14 12 12 11 12 12 11 10 9 9 8 9 6 8 7 6 5 9 10 9 5 5
11 11 10 9 10 10 8 9 9 9 9 10 10 11 12 12 17 18 15 9 10 13 11 11 12 12 13 14 10 9 7 6 6 7 6 5 5 7 5 5 6 8 4
11 12 11 11 10 10 9 9 7 7 11 9 12 12 14 13 15 15 13 7 10 9 9 12 17 13 11 14 11 10 9 7 8 7 4 5 5 7 10 4 7 9 8
11 11 11 11 10 10 9 8 9 9 10 11 12 12 12 12 15 14 13 9 9 8 8 8 7 14 14 17 12 10 7 8 8 6 5 4 3 5 2 3 3 6 4
11 11 12 12 10 8 9 9 10 9 11 11 10 10 9 10 12 14 16 17 12 8 7 7 7 11 14 14 12 10 12 8 5 6 5 4 5 5 4 5 5 5 3
12 12 11 13 11 10 10 10 10 9 8 10 9 9 9 7 9 13 15 15 15 9 6 7 8 10 12 10 10 13 12 6 6 6 4 5 5 5 6 6 4 5 7
14 14 13 12 13 11 9 9 9 9 11 10 9 9 8 7 7 7 4 4 12 11 8 5 6 7 8 9 8 9 6 5 6 6 4 4 5 6 6 5 4 4 4
11 11 11 11 11 11 10 8 9 10 9 12 9 7 7 6 6 8 8 4 3 5 6 5 4 5 6 7 6 8 7 7 5 4 5 4 5 6 5 6 4 4 4
10 9 9 9 9 9 9 9 10 12 17 17 8 5 4 8 11 13 12 10 4 7 3 4 5 6 7 8 8 7 6 7 5 5 5 6 7 7 6 6 5 6 5
10 10 9 9 9 9 9 9 11 12 10 12 14 11 7 10 13 11 10 3 7 6 2 3 4 5 5 6 6 6 7 6 7 5 6 5 7 7 9 9 7 7 6
9 12 9 9 9 9 9 9 8 10 11 12 11 13 16 12 13 11 6 7 3 1 0 4 4 4 5 6 7 6 6 6 6 6 6 6 7 8 8 9 8 8 8
8 7 8 8 8 9 8 9 8 10 10 10 11 15 21 22 6 9 11 3 2 0 1 1 2 4 5 6 6 6 7 6 6 7 6 6 7 8 8 8 8 9 9
9 16 11 7 8 9 8 9 9 9 9 9 9 12 13 12 11 11 6 4 1 1 1 1 1 2 3 4 6 4 5 5 8 8 7 7 8 8 8 9 8 9 9
6 8 15 9 8 8 8 9 8 8 9 9 9 11 20 10 10 11 11 10 11 8 3 2 2 4 4 4 4 5 5 6 8 9 8 7 8 9 8 7 7 8 8
6 6 8 7 8 9 9 8 8 9 9 10 9 11 17 11 11 11 11 11 10 9 8 9 7 4 2 3 3 4 5 6 7 8 8 8 8 9 9 9 8 8 8
6 7 7 7 7 9 8 9 9 9 9 10 10 10 11 10 10 11 11 11 10 10 10 10 10 10 11 9 6 3 4 6 6 8 8 9 9 9 10 10 10 9 10
4 6 6 6 7 7 7 8 8 10 9 9 10 9 10 10 11 12 11 10 10 10 10 10 10 12 10 10 9 8 7 6 5 5 10 9 9 9 8 8 9 12 10
2 3 4 4 5 6 7 7 8 9 9 9 9 9 9 9 9 9 9 9 9 10 12 11 10 13 14 16 14 14 14 12 7 5 4 9 11 12 11 9 9 8 9
2 3 3 4 4 4 5 6 6 6 7 8 7 7 8 8 8 8 8 9 9 9 11 9 11 15 16 14 16 15 13 15 11 8 2 2 6 7 7 10 14 10 12
Wind_Direction
350 20 136 151 149 158 210 227 229 272 61 210 235 237 236 232 192 218 209 223 217 237 222 231 236 240 239 237 231 234 240 236 243 256 228 214 208 218 222 221 223 221 230
2 43 46 53 298 273 273 272 250 254 239 241 242 223 223 231 206 201 220 211 214 224 231 222 236 236 241 235 233 232 233 232 239 248 230 212 215 215 217 213 219 218 224
28 23 17 312 313 290 274 271 253 227 213 211 234 240 242 231 228 227 218 214 223 231 234 228 238 234 246 249 244 238 234 235 235 244 246 204 210 204 209 224 218 218 206
340 311 297 283 281 279 274 277 263 257 225 231 226 221 217 214 216 217 224 230 231 231 234 224 232 238 246 244 247 240 232 230 231 237 241 201 191 196 211 208 206 209 194
266 230 234 251 258 283 294 284 245 231 235 247 253 251 261 241 236 232 244 243 243 235 236 228 234 232 240 240 237 232 217 229 217 224 236 189 180 176 202 189 209 186 186
328 313 310 312 303 301 303 304 290 270 270 258 253 252 257 256 252 257 257 258 250 242 237 233 231 235 241 240 240 223 203 216 228 217 227 231 197 199 186 198 196 178 195
303 292 285 280 285 273 258 260 270 277 273 271 267 269 270 271 267 264 265 260 243 239 228 229 230 231 226 235 232 222 216 218 233 218 224 221 208 203 201 204 189 193 180
302 298 295 289 272 275 273 279 280 270 277 281 273 268 268 269 260 259 259 253 238 237 230 227 230 236 220 213 205 206 210 210 219 213 223 233 235 233 225 218 194 177 112
312 306 305 304 299 298 295 286 283 283 278 269 266 265 257 263 259 259 264 259 234 233 231 234 229 235 219 195 186 192 197 204 194 189 196 215 219 203 174 138 162 154 139
317 313 309 304 298 288 282 285 280 277 283 284 280 271 271 270 260 250 249 241 234 231 235 244 232 223 200 177 183 184 190 192 182 164 132 113 137 163 159 150 155 151 136
315 313 310 306 297 293 285 288 289 292 288 285 279 280 277 274 279 269 246 239 233 225 224 229 227 216 190 182 182 179 183 157 170 152 122 113 140 142 122 99 92 137 140
315 316 314 313 313 312 303 304 297 288 288 290 283 282 276 274 265 266 255 226 226 225 218 225 226 203 191 179 178 170 146 149 151 139 131 157 155 143 149 144 134 115 75
317 319 317 320 320 320 315 310 309 310 296 296 290 286 289 285 278 255 251 230 225 230 226 224 211 185 177 171 179 163 152 158 141 136 152 159 165 146 137 137 121 107 95
327 327 321 321 327 329 316 319 311 314 313 302 296 288 282 287 289 285 246 213 222 216 224 188 161 150 162 146 142 154 168 163 164 145 141 136 145 149 166 160 155 143 112
330 324 320 327 329 321 311 312 319 311 291 300 298 293 301 298 312 326 318 282 219 204 153 124 133 147 143 139 154 167 165 171 164 142 137 145 162 154 167 173 155 148 140
328 327 326 325 324 318 318 322 306 278 301 312 289 259 308 288 303 308 308 287 254 199 151 154 158 165 166 168 174 175 171 176 159 153 145 165 173 168 167 169 167 175 164
329 325 329 327 331 334 331 325 339 339 321 6 12 4 350 292 315 300 285 274 212 190 148 155 176 173 175 177 172 177 180 176 157 160 169 177 178 173 167 176 176 170 172
335 332 336 330 334 337 335 349 348 344 346 352 4 350 346 337 340 356 75 128 103 298 131 162 176 173 180 182 173 174 168 158 171 176 170 178 186 178 177 175 181 184 172
345 347 342 338 339 338 344 352 352 351 351 353 348 358 355 334 347 23 349 45 61 163 87 166 172 195 194 191 187 174 171 167 171 183 179 171 182 182 183 176 177 181 171
353 358 3 354 350 354 356 359 359 358 356 357 1 2 346 358 9 5 357 350 34 275 245 280 253 212 200 200 181 177 169 164 185 182 179 177 179 184 180 179 179 176 186
355 354 5 12 5 360 359 3 1 2 4 2 1 1 353 16 14 10 8 9 6 348 311 258 259 255 204 193 186 175 179 186 193 190 187 181 184 190 187 180 183 188 193
0 358 6 10 5 9 5 4 7 8 9 7 5 5 5 21 15 14 14 10 4 6 5 355 330 281 270 223 213 204 193 201 204 196 191 187 191 195 189 185 192 189 177
15 14 15 13 11 8 13 12 11 13 11 11 12 12 15 16 15 15 14 10 8 8 14 17 15 5 1 2 353 308 218 202 204 203 198 193 196 196 197 197 195 194 191
18 22 21 17 16 13 13 11 10 8 9 14 14 17 20 17 15 12 10 9 10 9 17 22 13 18 16 20 4 359 352 336 315 234 214 204 196 190 195 204 195 194 195
355 3 7 9 12 11 8 13 15 16 16 19 18 17 17 21 19 19 13 11 13 14 19 14 15 12 15 17 26 10 343 340 332 280 238 211 209 205 202 203 194 189 193
319 338 334 336 351 1 2 2 7 11 15 18 14 16 18 19 21 18 15 16 14 18 18 17 15 17 16 10 7 10 346 16 359 337 59 164 217 212 202 209 212 205 199